Longview, TX

9:17 PM CST on February 25, 2017 (GMT -0600)
Gregg County

Weather History for KGGG - September, 2012

Change the Weather History Date:

Sunday, September 30, 2012

  Actual Average Record
Temperature  
Mean Temperature 64 °F 71 °F  
Max Temperature 68 °F 83 °F 101 °F (1938)
Min Temperature 60 °F 59 °F 38 °F (1920)
Degree Days  
Heating Degree Days 1 1  
Month to date heating degree days 1 4  
Since 1 July heating degree days 1 6  
Cooling Degree Days 0 7  
Month to date cooling degree days 388 339  
Year to date cooling degree days 2792 2279  
Growing Degree Days 14 (Base 50)    
Moisture  
Dew Point 62 °F    
Average Humidity 92    
Maximum Humidity 97    
Minimum Humidity 87    
Precipitation  
Precipitation 0.41 in 0.12 in 1.27 in (1980)
Month to date precipitation 6.69 3.34  
Year to date precipitation 31.88 33.99  
Snow  
Snow 0.00 in - - ()
Month to date snowfall 0.0  
Since 1 July snowfall 0.0  
Since 1 September snowfall 0.0  
Snow Depth 0.00 in    
Sea Level Pressure  
Sea Level Pressure 29.75 in    
Wind  
Wind Speed 10 mph (North)    
Max Wind Speed 17 mph    
Max Gust Speed 25 mph    
Visibility 4 miles    
Events Rain    
T = Trace of Precipitation, MM = Missing Value Source: NWS Daily Summary

Daily Weather History Graph

Daily Weather History Graph

Search for Another Location

Airport or City:

Trip Planner

Search our weather history database for the weather conditions in past years. The results will help you decide how hot, cold, wet, or windy it might be!

Date:

Astronomy

Sep. 30, 2012 Rise Set
Actual Time 7:12 AM CDT 7:04 PM CDT
Civil Twilight 6:48 AM CDT 7:28 PM CDT
Nautical Twilight 6:19 AM CDT 7:57 PM CDT
Astronomical Twilight 5:51 AM CDT 8:25 PM CDT
Moon 7:14 PM CDT (9/30) 7:39 AM CDT (9/30)
Length of Visible Light 12h 40m
Length of Day
11h 51m
Full, 100% of the Moon is Illuminated
Sep 30
Full
Oct 8
Last Quarter
Oct 15
New
Oct 21
First Quarter
Oct 29
Full

Hourly Weather History & Observations

Time (CDT) Temp. Dew Point Humidity Pressure Visibility Wind Dir Wind Speed Gust Speed Precip Events Conditions
12:09 AM 66.2 °F 64.4 °F 94% 29.79 in 3.0 mi ENE 16.1 mph 23.0 mph 0.06 in Rain Heavy Rain
12:35 AM 66.2 °F 64.4 °F 94% 29.79 in 3.0 mi ENE 11.5 mph 24.2 mph 0.17 in Rain Heavy Rain
12:53 AM 66.9 °F 64.9 °F 93% 29.76 in 3.0 mi ENE 17.3 mph 25.3 mph 0.26 in Rain Heavy Rain
1:53 AM 66.9 °F 64.9 °F 93% 29.76 in 4.0 mi ENE 11.5 mph 20.7 mph 0.20 in Rain Rain
2:09 AM 66.2 °F 64.4 °F 94% 29.77 in 7.0 mi ENE 10.4 mph - 0.01 in Rain Light Rain
2:12 AM 66.2 °F 64.4 °F 94% 29.77 in 8.0 mi ENE 10.4 mph - 0.01 in Rain Light Rain
2:19 AM 66.2 °F 64.4 °F 94% 29.77 in 10.0 mi NE 11.5 mph - 0.01 in Rain Light Rain
2:50 AM 66.2 °F 64.4 °F 94% 29.76 in 10.0 mi NE 10.4 mph - 0.01 in   Overcast
2:53 AM 66.9 °F 64.9 °F 93% 29.75 in 10.0 mi NE 10.4 mph - 0.01 in   Overcast
3:53 AM 68.0 °F 64.9 °F 90% 29.72 in 10.0 mi NE 8.1 mph 18.4 mph 0.00 in   Overcast
4:53 AM 66.9 °F 64.9 °F 93% 29.71 in 10.0 mi North 8.1 mph 20.7 mph N/A   Overcast
5:23 AM 66.2 °F 64.4 °F 94% 29.72 in 2.0 mi NNE 11.5 mph 19.6 mph 0.02 in Rain Light Rain
5:37 AM 66.2 °F 64.4 °F 94% 29.73 in 9.0 mi NE 10.4 mph 19.6 mph 0.02 in Rain Light Rain
5:53 AM 66.0 °F 64.0 °F 93% 29.71 in 2.0 mi NE 10.4 mph 19.6 mph 0.04 in Rain Rain
6:08 AM 64.4 °F 64.4 °F 100% 29.72 in 1.8 mi NNE 11.5 mph 18.4 mph 0.03 in Rain Rain
6:19 AM 64.4 °F 64.4 °F 100% 29.72 in 2.0 mi NNE 9.2 mph 18.4 mph 0.04 in Rain Rain
6:49 AM 64.4 °F 62.6 °F 94% 29.73 in 3.0 mi North 8.1 mph 19.6 mph 0.05 in Rain Light Rain
6:53 AM 64.9 °F 63.0 °F 93% 29.72 in 4.0 mi North 10.4 mph 19.6 mph 0.05 in Rain Light Rain
7:53 AM 64.0 °F 63.0 °F 96% 29.73 in 4.0 mi North 6.9 mph - 0.01 in Rain Light Rain
8:48 AM 64.4 °F 62.6 °F 94% 29.74 in 2.5 mi North 11.5 mph 18.4 mph 0.01 in Rain Light Rain
8:53 AM 64.0 °F 62.1 °F 93% 29.74 in 3.0 mi North 12.7 mph 18.4 mph 0.01 in Rain Light Rain
9:31 AM 62.6 °F 62.6 °F 100% 29.76 in 2.0 mi North 8.1 mph 19.6 mph 0.00 in   Overcast
9:53 AM 63.0 °F 62.1 °F 97% 29.76 in 2.0 mi North 12.7 mph 19.6 mph 0.00 in   Overcast
10:13 AM 62.6 °F 62.6 °F 100% 29.77 in 2.5 mi North 11.5 mph - N/A   Overcast
10:53 AM 64.0 °F 62.1 °F 93% 29.76 in 2.0 mi North 10.4 mph 18.4 mph N/A   Overcast
11:01 AM 64.4 °F 62.6 °F 94% 29.76 in 1.8 mi North 12.7 mph 18.4 mph 0.00 in Rain Light Rain
11:13 AM 64.4 °F 62.6 °F 94% 29.77 in 2.0 mi NNW 11.5 mph 18.4 mph 0.00 in Rain Light Rain
11:22 AM 64.4 °F 62.6 °F 94% 29.76 in 1.8 mi NNW 12.7 mph 18.4 mph 0.00 in Rain Light Rain
11:53 AM 64.0 °F 62.1 °F 93% 29.75 in 1.2 mi North 11.5 mph - 0.01 in   Overcast
12:06 PM 62.6 °F 62.6 °F 100% 29.76 in 1.5 mi North 12.7 mph 20.7 mph 0.00 in Rain Light Rain
12:23 PM 62.6 °F 62.6 °F 100% 29.76 in 2.0 mi North 10.4 mph 17.3 mph 0.01 in Rain Light Rain
12:53 PM 63.0 °F 62.1 °F 97% 29.75 in 2.0 mi North 10.4 mph - 0.01 in Rain Light Rain
1:12 PM 62.6 °F 60.8 °F 94% 29.75 in 1.8 mi North 11.5 mph 20.7 mph 0.00 in Rain Light Rain
1:30 PM 62.6 °F 60.8 °F 94% 29.75 in 2.0 mi North 9.2 mph - 0.00 in Rain Light Rain
1:53 PM 63.0 °F 61.0 °F 93% 29.74 in 2.0 mi North 8.1 mph 19.6 mph 0.00 in Rain Light Rain
2:22 PM 62.6 °F 60.8 °F 94% 29.74 in 1.8 mi North 9.2 mph 16.1 mph 0.00 in Rain Light Rain
2:40 PM 62.6 °F 60.8 °F 94% 29.74 in 2.5 mi North 13.8 mph 23.0 mph 0.01 in Rain Light Rain
2:53 PM 62.1 °F 61.0 °F 96% 29.73 in 2.0 mi North 12.7 mph 19.6 mph 0.01 in Rain Light Rain
3:04 PM 62.6 °F 60.8 °F 94% 29.74 in 1.5 mi North 17.3 mph 23.0 mph 0.01 in   Overcast
3:53 PM 61.0 °F 59.0 °F 93% 29.74 in 1.8 mi North 13.8 mph 25.3 mph 0.04 in Rain Light Rain
4:07 PM 60.8 °F 59.0 °F 94% 29.76 in 2.0 mi North 11.5 mph 20.7 mph 0.00 in Rain Light Rain
4:12 PM 60.8 °F 59.0 °F 94% 29.75 in 3.0 mi North 10.4 mph 20.7 mph 0.00 in Rain Light Rain
4:53 PM 63.0 °F 60.1 °F 90% 29.75 in 6.0 mi NNW 8.1 mph 17.3 mph 0.00 in   Overcast
5:53 PM 64.0 °F 60.1 °F 87% 29.75 in 9.0 mi North 8.1 mph - 0.00 in   Overcast
6:00 PM 64.4 °F 59.0 °F 83% 29.76 in 10.0 mi North 8.1 mph - N/A   Overcast
6:53 PM 64.9 °F 59.0 °F 81% 29.75 in 4.0 mi NNW 10.4 mph - 0.00 in Rain Light Rain
7:53 PM 63.0 °F 59.0 °F 87% 29.76 in 10.0 mi North 6.9 mph - 0.02 in   Overcast
8:53 PM 62.1 °F 60.1 °F 93% 29.78 in 6.0 mi NNW 8.1 mph - 0.02 in   Overcast
9:53 PM 61.0 °F 57.0 °F 87% 29.81 in 10.0 mi North 11.5 mph 17.3 mph N/A   Scattered Clouds
10:53 PM 61.0 °F 57.9 °F 90% 29.81 in 10.0 mi NNW 6.9 mph - N/A   Overcast
11:53 PM 61.0 °F 57.9 °F 90% 29.79 in 9.0 mi NNW 6.9 mph - N/A   Overcast